Regional Weather Roundup
Issued by NWS

Home | Current Version | Previous Version | Graphics & Text | Print | Product List | Glossary On
Versions: 1 2 3 4 5 6 7 8 9 10 11 12 13 14 15 16 17 18 19 20 21 22 23 24 25 26 27 28 29 30 31 32 33 34 35 36 37 38 39 40 41 42 43 44 45 46 47 48 49 50
000
ASUS43 KOAX 220202
RWRNE

WEATHER ROUNDUP FOR NEBRASKA
NATIONAL WEATHER SERVICE OMAHA NE
800 PM CST FRI NOV 21 2014

NOTES: SATELLITE DATA IS BEING USED TO AUGMENT CLOUD COVER ABOVE
       12000 FEET.
       "FAIR" INDICATES FEW OR NO CLOUDS BELOW 12,000 FEET WITH NO
       SIGNIFICANT WEATHER AND/OR OBSTRUCTIONS TO VISIBILITY.

  * THESE STATIONS DO NOT REPORT WEATHER SUCH AS RAIN...SNOW OR FOG.

NEZ001>004-019>022-054>056-220300-
NEBRASKA PANHANDLE

CITY           SKY/WX    TMP DP  RH WIND       PRES   REMARKS
SCOTTSBLUFF    CLEAR     34  21  59 N8        29.89S WCI  27
ALLIANCE       CLEAR     25  18  74 NW7       29.88S WCI  17
CHADRON        CLEAR     32  26  78 CALM      29.88R
SIDNEY         CLEAR     27  16  63 SW9       29.92S WCI  18
$$

NEZ057>060-069>072-079>082-220300-
SOUTHWEST NEBRASKA

CITY           SKY/WX    TMP DP  RH WIND       PRES   REMARKS
NORTH PLATTE   CLEAR     31  24  75 E5        29.91R WCI  26
IMPERIAL       CLEAR     35  23  61 S7        29.91S WCI  29
MCCOOK         CLEAR     38  30  73 S6        29.93S WCI  33
$$

NEZ005>010-023>029-035>040-094-220300-
NORTH CENTRAL NEBRASKA

CITY           SKY/WX    TMP DP  RH WIND       PRES   REMARKS
VALENTINE      PTCLDY    35  28  75 W6        29.85F WCI  30
BROKEN BOW     PTCLDY    40  29  64 S10       29.91S WCI  33
ORD            MOCLDY    40  29  64 S7        29.91F
$$

NEZ041-046>049-061>064-073>077-083>087-220300-
SOUTH CENTRAL NEBRASKA

CITY           SKY/WX    TMP DP  RH WIND       PRES   REMARKS
GRAND ISLAND   CLOUDY    41  29  62 S8        29.98S
HASTINGS       CLOUDY    41  32  70 S7        29.97S
KEARNEY *      CLEAR     32  27  80 SE9       29.97S WCI  24
$$

NEZ011>018-030>034-042>045-220300-
NORTHEAST NEBRASKA

CITY           SKY/WX    TMP DP  RH WIND       PRES   REMARKS
NORFOLK        MOCLDY    38  29  70 S16       29.92F WCI  29
COLUMBUS *     CLOUDY    36  28  75 SE3       29.99S
TEKAMAH        CLOUDY    38  30  73 S16       30.00F WCI  29
WAYNE          MOCLDY    34  28  80 S14       29.94S WCI  25
$$

NEZ050>053-065>068-078-088>093-220300-
SOUTHEAST NEBRASKA

CITY           SKY/WX    TMP DP  RH WIND       PRES   REMARKS
LINCOLN        CLOUDY    38  34  85 S13       30.04S FOG     WCI  30
OMAHA EPPLEY   CLOUDY    37  33  85 S20       30.05F WCI  27
FALLS CITY     CLOUDY    35  33  92 SE5       30.06F WCI  31
NEBRASKA CITY  CLOUDY    35  34  96 S8        30.05S FOG     WCI  28
$$

NEZ044-045-051>053-067-220300-
OMAHA AREA

CITY           SKY/WX    TMP DP  RH WIND       PRES   REMARKS
OMAHA EPPLEY   CLOUDY    37  33  85 S20       30.05F WCI  27
MILLARD        CLOUDY    37  33  87 SE12      30.03S FOG     WCI  29
OFFUTT AFB     CLOUDY    37  33  85 SE10      30.04F WCI  29
$$


USA.gov is the U.S. government's official web portal to all federal, state and local government web resources and services.